Dewpoint
-4 -2 -2 -2 -1 -0 1 1 2 0 1 2 1 4 3 1 1 2 1 0 1 1 2 2 2 2 1 -0 1 3 1 2 3 2 -1 -2 -2 1 1 5 5 5 5 3
-4 -3 -2 -3 -2 -0 1 1 -0 3 3 3 4 3 4 3 2 2 1 2 1 1 2 3 1 1 -0 0 0 1 1 4 4 3 3 0 3 2 1 4 4 6 6 3
-3 -3 -3 -5 -3 0 1 1 2 2 2 2 2 4 4 4 3 2 2 2 1 2 2 2 3 3 1 0 -0 0 0 3 4 5 0 1 5 4 5 5 6 4 5 2
-3 -4 -4 -9 -3 0 1 -0 1 2 4 3 2 2 2 3 3 2 2 2 1 2 3 3 3 2 2 1 1 1 1 6 3 3 2 2 4 5 5 6 5 6 2 1
-2 -5 -4 -9 -3 0 0 0 1 1 1 1 2 2 2 2 3 2 3 2 2 1 2 1 3 2 2 3 2 2 2 5 4 5 2 3 6 5 7 7 7 6 5 4
-3 -5 -4 -10 -3 -0 0 1 1 1 2 2 3 3 2 2 1 2 1 1 2 2 1 1 0 2 2 3 3 3 4 4 6 6 3 4 8 7 7 7 5 5 6 3
-6 -7 -3 -17 -6 -1 0 0 1 2 4 3 3 2 1 2 1 3 2 2 1 3 3 3 3 3 3 3 2 3 4 5 6 7 5 7 4 4 5 7 6 4 3 2
-6 -4 -8 -10 -4 -3 -1 0 1 2 4 2 3 2 2 1 1 2 3 3 2 3 4 5 5 5 5 4 4 3 2 3 7 7 7 3 4 3 4 7 6 4 4 3
-5 -5 -13 -4 -4 -2 -1 1 2 1 3 4 1 2 2 3 3 3 3 4 3 3 4 5 7 5 3 3 5 3 3 3 6 6 7 6 4 2 3 4 9 2 4 3
-4 -9 -7 -2 -2 -2 -0 2 2 2 3 3 3 2 3 2 3 4 4 5 5 4 5 6 6 4 1 4 4 7 6 6 6 5 7 5 2 1 4 7 8 2 3 4
-6 -13 -17 -4 -2 -1 -0 1 2 2 4 4 4 3 4 4 4 4 4 4 4 5 5 6 6 5 2 4 3 5 6 6 6 6 8 7 1 2 4 1 2 2 3 3
-15 -18 -7 -3 -5 -3 -0 1 2 3 3 4 4 3 3 3 2 3 3 4 3 4 4 5 5 4 3 3 4 3 5 4 4 4 4 1 2 2 2 2 2 2 2 3
-4 -4 -3 -3 -7 -9 -2 0 2 3 3 3 3 3 3 3 3 3 4 4 3 4 4 5 4 5 3 6 5 4 3 2 4 5 3 3 2 2 1 1 2 2 2 2
-4 -4 -3 -4 -7 -13 -6 -0 2 3 4 4 3 3 3 3 4 4 4 4 4 4 4 4 6 5 4 5 3 4 3 3 4 4 3 2 2 2 2 1 2 1 1 1
-4 -3 -3 -3 -5 -9 -5 0 3 3 4 4 4 4 4 4 5 5 5 5 5 5 5 5 5 5 4 3 3 4 3 4 4 4 2 2 1 1 1 1 1 -0 -0 -0
-4 -3 -4 -3 -4 -5 1 3 3 4 3 4 4 4 4 5 5 4 3 5 5 4 4 5 4 4 5 6 6 3 2 2 3 3 2 1 1 2 1 1 0 -0 -0 -1
-4 -3 -3 -2 -2 -2 1 3 3 3 3 4 5 4 4 5 5 4 4 4 4 5 4 6 6 5 5 5 4 2 2 3 2 2 2 2 1 2 1 1 1 1 0 -0
-3 -2 -1 -2 -4 -2 1 3 3 4 4 4 4 5 4 4 4 4 4 4 4 4 5 5 6 5 5 6 4 3 3 2 2 2 1 1 1 1 2 2 -1 -0 0 0
-2 -0 -2 -5 -1 1 3 4 4 3 4 4 4 5 5 4 4 5 4 5 5 5 5 5 5 6 6 5 4 3 3 3 2 1 1 1 1 2 2 2 -0 0 1 0
-3 -2 1 2 2 2 4 4 4 4 4 4 4 3 4 4 4 4 4 4 5 5 5 3 5 6 4 3 3 3 3 2 1 1 1 2 2 3 3 3 2 -0 0 -0
-3 -1 -0 1 2 3 3 3 3 3 3 4 2 3 3 3 4 4 3 4 3 6 3 4 5 4 2 1 2 2 3 2 1 2 4 3 2 3 3 3 2 -0 -1 -1
-2 -2 -0 2 3 2 3 3 2 3 4 3 3 3 3 3 3 4 3 4 3 4 0 3 4 2 -0 0 2 3 2 1 1 1 1 1 1 2 1 2 1 -1 -2 -3
-2 -1 -0 0 1 2 2 4 4 4 2 2 3 3 3 3 3 2 3 4 4 -0 3 3 3 0 -2 -0 1 2 1 1 1 1 1 1 1 1 1 1 -0 -3 -4 -5
-2 -1 -0 1 2 2 2 1 0 -0 0 1 2 2 2 2 3 2 4 2 1 4 3 3 -1 -4 -2 -0 1 2 1 1 1 1 1 1 1 0 0 -1 -3 -5 -5 -6
-1 -1 -0 -0 -1 -0 -0 -1 -1 -0 0 2 2 1 1 2 3 1 2 3 3 2 3 1 -3 -3 -1 -0 1 1 1 1 1 1 1 1 1 -0 -2 -3 -4 -5 -6 -6
-1 -1 -1 -1 -1 -0 -1 -1 -1 0 1 2 1 2 3 4 2 3 4 2 3 3 1 -3 -3 -2 -1 -0 0 1 1 1 0 0 0 0 -1 -2 -3 -4 -5 -5 -6 -6
-1 -1 -2 -2 -3 -2 -2 -1 -1 -1 1 2 1 3 4 0 3 3 1 1 2 -2 -4 -3 -2 -1 -1 -0 0 1 1 0 0 0 -0 -1 -2 -3 -4 -4 -5 -5 -6 -7
Wind_Speed
27 27 28 27 27 32 35 7 1 6 19 3 1 3 4 8 12 3 4 6 10 15 13 12 8 8 3 9 12 10 12 4 7 15 11 14 15 12 19 8 8 9 12 22
27 27 29 22 26 31 38 7 5 11 19 4 2 4 2 4 4 2 3 4 3 5 10 6 7 6 5 15 10 11 10 5 4 4 5 4 8 13 20 18 13 22 15 14
26 27 28 21 26 33 16 3 1 5 6 2 6 5 4 5 5 3 7 8 8 9 8 3 6 6 4 12 12 9 14 5 8 9 11 9 9 16 15 16 10 22 22 31
25 25 26 24 25 32 15 6 2 3 3 2 5 5 7 10 5 2 4 4 6 5 4 5 4 6 3 4 9 11 9 5 12 18 22 22 23 25 26 19 23 16 29 20
23 24 26 27 22 30 20 8 3 6 5 11 12 6 9 14 4 3 3 6 8 5 4 5 6 5 6 5 11 10 7 4 8 13 20 20 21 21 20 17 12 16 22 24
22 22 22 25 19 28 10 15 8 1 8 7 9 5 12 10 9 3 3 8 7 7 6 6 5 7 4 4 4 13 5 4 3 8 13 23 5 4 10 8 7 7 9 13
21 20 21 23 16 17 22 22 13 1 3 5 5 7 7 11 5 5 5 9 5 3 1 2 3 9 14 13 15 10 5 5 2 7 14 3 5 4 8 8 11 13 14 14
19 19 21 20 17 15 19 20 10 5 3 4 7 6 5 9 7 4 4 6 5 5 4 1 2 3 2 9 16 17 14 6 3 4 7 15 1 2 6 3 5 9 14 12
18 19 18 18 16 18 20 15 3 4 3 5 7 10 9 5 6 4 4 3 10 9 2 3 3 4 3 3 5 5 10 10 5 3 5 4 4 4 2 3 4 11 7 7
17 17 13 16 15 18 20 6 1 5 5 2 10 5 9 6 5 3 3 6 6 12 3 4 3 4 2 3 3 4 4 3 12 10 5 9 6 5 4 4 5 6 11 5
18 17 16 14 16 16 19 6 4 8 6 5 7 9 7 6 6 4 6 3 3 3 4 3 3 5 5 3 2 6 7 6 4 4 5 7 1 3 5 3 7 9 3 6
16 15 16 17 16 12 14 10 4 5 7 1 4 5 6 11 11 10 13 2 4 5 4 3 4 4 3 3 2 3 4 6 2 7 5 3 3 6 6 6 8 8 7 4
17 16 16 18 16 11 10 11 10 5 3 3 3 6 9 9 10 10 6 6 8 6 7 2 3 4 2 4 5 3 5 5 4 3 3 8 4 4 6 7 4 5 6 9
18 17 16 18 15 10 9 8 4 3 2 2 1 2 5 9 13 14 17 9 13 7 3 2 2 3 5 2 2 3 1 5 5 6 12 12 3 3 3 3 3 5 5 7
19 16 17 17 14 9 7 6 6 7 3 3 3 6 6 6 9 12 16 13 12 6 3 4 3 2 2 1 1 4 6 5 4 3 3 3 3 1 2 1 4 7 10 13
22 16 16 15 11 7 2 3 2 10 4 3 2 2 4 4 3 5 5 9 13 10 6 4 4 4 4 3 3 6 11 10 9 2 3 1 4 3 5 7 9 10 12 15
23 17 16 15 11 7 7 5 7 9 7 3 3 2 2 3 5 6 7 9 5 6 4 4 2 3 5 3 11 6 7 11 11 11 6 1 6 3 8 10 13 15 16 18
16 14 13 8 8 7 6 1 5 12 4 3 2 2 2 4 3 3 6 5 6 9 4 3 2 4 5 5 10 11 14 15 12 10 10 4 9 13 15 10 16 20 21 22
8 8 8 7 6 5 5 3 6 11 3 2 2 1 1 3 3 3 4 4 3 5 2 2 2 3 5 6 7 5 6 8 6 8 9 9 16 17 17 15 17 21 24 25
3 2 2 2 2 8 10 3 5 5 5 4 2 2 1 3 1 1 1 1 0 2 1 2 3 4 14 10 7 3 5 8 11 14 11 14 19 20 21 20 17 20 27 28
1 2 2 0 6 4 2 2 2 2 2 4 3 4 1 2 1 1 1 1 1 1 1 2 2 3 2 5 7 10 9 8 10 9 9 11 17 26 24 23 23 26 28 30
1 3 2 2 1 0 1 2 1 2 3 1 1 2 5 2 2 1 0 0 0 2 2 2 3 3 3 5 2 4 7 11 15 8 11 14 20 25 28 29 29 28 29 30
2 0 1 1 0 2 4 5 2 2 1 2 1 1 2 2 1 2 1 1 2 1 2 3 4 3 7 3 2 4 8 11 12 9 11 16 21 24 27 30 30 31 31 31
1 1 0 2 2 1 1 1 1 2 2 4 2 2 1 1 2 0 1 1 1 2 2 4 1 5 4 2 2 5 8 10 10 11 15 19 25 29 28 30 33 33 32 31
1 1 2 2 1 1 1 1 2 3 5 2 1 1 2 1 2 1 1 1 3 4 4 2 4 7 3 2 1 3 8 10 11 14 18 23 27 29 32 33 33 33 33 33
2 2 1 1 2 1 1 0 2 4 5 3 3 1 1 2 2 2 4 2 5 2 2 4 7 2 2 2 2 4 8 11 13 15 20 25 29 32 35 34 33 33 30 29
2 2 2 1 2 4 2 3 2 5 2 2 1 4 2 2 2 3 4 4 2 4 6 8 4 2 2 2 3 6 9 12 13 16 21 26 29 32 34 35 33 31 30 29
Wind_Direction
342 341 341 336 339 343 346 321 244 168 167 121 142 126 175 131 157 89 99 101 104 151 163 174 181 188 233 179 155 191 188 198 247 236 235 220 224 227 217 228 224 226 255 268
343 343 346 339 342 347 339 305 322 122 159 135 127 146 142 97 124 76 112 107 99 139 156 149 167 183 156 162 182 172 163 212 269 216 156 183 234 237 236 238 262 252 260 267
345 346 347 343 342 353 0 311 70 82 104 100 131 118 70 101 47 72 75 106 102 117 148 78 157 192 168 194 200 170 178 222 243 262 286 316 261 260 246 228 243 261 244 266
346 348 349 352 348 4 18 17 37 45 128 117 140 105 153 139 144 88 102 82 130 130 132 160 188 201 157 152 196 184 192 251 248 258 271 279 274 273 276 257 240 244 268 273
348 352 351 352 1 8 18 8 14 360 152 154 168 168 173 164 152 154 103 122 158 148 170 198 178 175 204 207 193 198 200 262 283 278 282 274 271 272 276 279 266 242 257 270
350 351 353 355 6 12 357 355 339 30 156 172 172 168 155 171 140 55 107 148 140 196 234 223 215 189 258 262 212 193 213 224 299 276 304 301 252 310 302 286 241 247 234 251
349 354 351 351 355 3 356 349 336 276 131 163 164 164 157 170 156 114 143 169 172 133 337 160 236 236 237 240 241 226 211 187 209 295 304 272 19 177 272 288 271 240 258 265
349 350 350 357 351 349 343 342 341 338 323 194 199 168 170 151 142 177 145 184 177 153 93 10 238 211 220 228 227 230 222 237 279 273 298 282 220 31 334 343 327 3 254 274
347 342 352 357 355 349 336 350 290 231 291 210 180 196 185 150 163 167 182 141 201 162 162 199 220 228 247 211 171 225 205 216 230 311 305 293 18 15 212 227 6 359 342 315
335 341 350 357 354 355 349 9 310 269 274 167 184 200 188 178 165 112 130 156 187 204 176 206 206 235 239 228 188 150 155 195 223 238 260 277 294 347 151 353 304 332 332 340
329 335 337 336 343 357 357 354 64 338 299 176 195 193 158 155 179 154 144 145 187 178 207 210 189 234 211 233 220 172 179 188 182 198 236 264 97 295 343 19 303 307 321 335
327 329 338 334 331 339 352 346 298 332 223 250 210 210 214 215 215 181 168 186 135 210 202 209 238 221 208 223 244 168 221 225 225 213 229 291 240 276 307 285 279 294 293 221
331 326 323 320 326 326 327 314 352 53 344 279 247 234 234 228 219 207 168 196 186 207 223 211 260 246 216 205 226 219 222 201 244 276 231 258 316 267 284 311 306 309 275 217
326 317 313 317 320 313 302 278 306 271 297 286 265 227 240 238 232 230 221 198 188 207 246 279 220 230 189 250 321 249 322 170 229 255 280 294 7 338 277 334 22 71 106 163
329 322 313 311 309 300 290 232 231 212 247 329 295 282 274 265 244 229 226 233 210 189 176 226 227 176 191 209 284 242 195 210 208 278 359 302 20 14 82 70 75 93 111 123
323 318 305 303 301 299 108 135 242 197 211 275 282 277 273 266 263 182 247 218 217 203 203 234 223 234 217 221 237 250 218 229 237 310 338 355 120 122 117 115 107 110 118 123
321 313 294 282 269 234 198 171 167 205 232 249 296 290 271 284 245 207 227 208 223 207 224 228 284 213 192 266 248 252 249 236 235 242 247 177 169 158 135 134 127 122 119 121
334 324 301 268 213 215 191 164 203 187 175 239 272 270 282 202 235 221 190 186 206 201 248 217 214 168 209 249 248 247 250 252 232 231 214 216 180 154 132 137 134 127 123 125
10 10 56 101 137 131 168 228 174 184 232 257 195 253 278 197 256 228 196 217 205 189 221 218 201 185 221 239 246 251 237 226 221 195 189 177 169 156 145 155 149 135 133 133
38 65 57 104 156 144 131 127 157 164 224 237 242 229 261 203 247 267 284 229 270 231 134 308 224 252 251 250 240 252 288 230 198 149 146 162 165 168 163 161 164 151 144 142
148 32 26 254 149 144 136 117 183 175 256 221 238 233 256 226 248 313 8 307 329 256 94 284 258 260 245 301 273 239 248 211 187 187 181 191 192 172 169 167 169 161 152 151
4 320 27 73 102 29 133 175 260 194 249 193 220 218 209 218 240 231 160 283 325 262 343 263 254 254 305 310 274 192 187 179 179 178 193 204 191 182 174 171 168 164 159 155
108 329 329 47 234 197 203 184 199 230 342 322 259 225 197 155 172 69 20 287 238 324 237 247 249 303 316 310 295 193 180 178 188 203 188 185 181 182 179 174 171 165 162 160
195 160 179 235 168 244 32 0 320 308 298 321 291 253 220 122 83 235 251 8 306 266 256 242 289 321 318 330 307 196 182 186 188 182 177 177 176 173 177 175 170 168 163 160
208 193 200 208 355 266 284 292 318 307 316 285 250 274 226 51 110 32 119 252 252 232 243 259 320 322 305 322 294 209 195 189 184 179 175 174 174 173 169 170 168 167 163 163
235 221 217 324 236 230 14 47 310 358 328 297 245 242 208 219 148 169 211 203 230 250 231 289 315 291 279 295 253 200 193 192 188 183 179 176 174 172 169 167 168 168 165 162
221 212 188 144 259 262 292 326 295 320 314 238 212 206 213 94 200 231 192 218 275 316 315 316 286 257 252 226 211 195 190 188 187 182 178 177 174 171 167 163 163 164 163 163
Height
1436 1430 1424 1418 1414 1408 1400 1394 1394 1394 1398 1404 1408 1406 1410 1407 1411 1410 1411 1415 1417 1423 1429 1435 1435 1437 1440 1446 1449 1452 1455 1461 1457 1450 1444 1445 1441 1442 1448 1450 1434 1432 1423 1376
1435 1429 1422 1416 1412 1407 1399 1393 1392 1393 1398 1399 1403 1408 1406 1406 1409 1411 1413 1415 1416 1422 1427 1432 1434 1437 1441 1445 1447 1448 1453 1460 1448 1433 1442 1444 1444 1436 1435 1436 1435 1415 1414 1378
1434 1428 1421 1414 1411 1405 1397 1394 1393 1396 1398 1401 1399 1403 1406 1409 1412 1414 1414 1417 1418 1421 1427 1429 1435 1437 1440 1443 1445 1448 1451 1448 1443 1426 1415 1425 1435 1431 1431 1433 1422 1395 1390 1377
1433 1427 1420 1415 1409 1403 1396 1394 1395 1396 1398 1402 1400 1402 1406 1409 1413 1415 1416 1419 1418 1421 1427 1430 1433 1435 1438 1442 1445 1448 1449 1444 1439 1433 1426 1422 1419 1416 1412 1413 1406 1405 1366 1374
1432 1427 1421 1415 1411 1406 1401 1400 1402 1400 1401 1402 1403 1404 1405 1406 1413 1411 1415 1416 1421 1424 1424 1424 1428 1431 1436 1435 1440 1443 1444 1437 1434 1426 1415 1412 1410 1402 1399 1391 1387 1390 1388 1380
1432 1427 1421 1416 1412 1409 1406 1406 1404 1403 1400 1402 1403 1403 1402 1407 1407 1414 1415 1418 1422 1424 1425 1426 1428 1431 1434 1436 1434 1437 1437 1439 1435 1418 1409 1402 1391 1392 1393 1386 1387 1381 1381 1370
1431 1427 1422 1418 1415 1413 1410 1406 1404 1404 1401 1402 1400 1401 1402 1404 1407 1412 1418 1420 1422 1426 1426 1427 1428 1430 1431 1433 1431 1432 1430 1433 1435 1421 1410 1390 1384 1386 1387 1383 1378 1376 1371 1367
1430 1426 1422 1418 1416 1415 1412 1407 1404 1402 1399 1399 1402 1402 1403 1407 1410 1414 1418 1421 1423 1424 1426 1428 1426 1424 1428 1423 1425 1426 1430 1429 1431 1422 1410 1388 1379 1382 1383 1383 1375 1368 1368 1367
1429 1424 1420 1418 1415 1413 1410 1407 1404 1407 1405 1402 1402 1404 1406 1406 1410 1416 1417 1420 1422 1424 1426 1427 1421 1415 1411 1410 1416 1419 1425 1430 1432 1422 1417 1394 1376 1380 1381 1380 1375 1371 1371 1368
1427 1424 1421 1419 1416 1412 1408 1405 1405 1405 1402 1400 1402 1403 1404 1407 1410 1412 1416 1419 1422 1423 1423 1422 1422 1412 1410 1406 1403 1414 1422 1425 1423 1423 1418 1391 1376 1379 1380 1376 1383 1375 1373 1373
1424 1421 1417 1414 1412 1409 1407 1406 1405 1406 1401 1401 1402 1403 1403 1406 1407 1409 1416 1419 1419 1420 1420 1419 1416 1410 1403 1403 1400 1401 1409 1413 1415 1419 1411 1397 1377 1377 1376 1377 1374 1372 1373 1372
1422 1419 1416 1414 1411 1409 1407 1404 1404 1401 1403 1402 1401 1402 1403 1404 1406 1408 1411 1413 1415 1416 1416 1418 1411 1406 1405 1399 1394 1401 1399 1393 1389 1392 1384 1375 1377 1376 1376 1375 1374 1372 1370 1371
1420 1416 1414 1411 1408 1407 1405 1403 1403 1402 1402 1402 1401 1401 1402 1403 1404 1406 1408 1411 1411 1412 1412 1410 1407 1406 1403 1396 1395 1393 1393 1393 1390 1389 1374 1375 1374 1374 1374 1373 1372 1370 1367 1368
1417 1413 1410 1407 1405 1404 1403 1403 1404 1404 1404 1403 1401 1400 1400 1401 1401 1402 1403 1403 1406 1408 1409 1409 1405 1403 1403 1394 1394 1392 1389 1392 1384 1381 1375 1372 1373 1373 1372 1372 1370 1368 1368 1367
1412 1409 1406 1404 1403 1401 1401 1401 1402 1403 1406 1402 1400 1399 1398 1398 1397 1398 1399 1401 1403 1404 1406 1406 1401 1399 1400 1398 1397 1389 1385 1380 1379 1372 1375 1375 1376 1374 1373 1373 1371 1370 1370 1371
1406 1404 1402 1399 1398 1399 1399 1401 1401 1401 1402 1402 1399 1397 1396 1395 1395 1395 1397 1397 1398 1401 1401 1399 1396 1394 1395 1391 1388 1376 1376 1376 1377 1375 1376 1376 1375 1376 1375 1374 1373 1373 1373 1374
1400 1397 1395 1395 1394 1395 1397 1400 1400 1400 1402 1402 1399 1396 1395 1394 1394 1394 1395 1395 1396 1398 1398 1395 1392 1393 1393 1387 1376 1373 1373 1373 1374 1374 1375 1376 1376 1377 1376 1376 1376 1375 1377 1379
1394 1391 1389 1389 1390 1393 1395 1397 1398 1398 1400 1400 1398 1395 1394 1393 1392 1392 1392 1393 1394 1394 1393 1391 1390 1391 1391 1382 1368 1369 1370 1370 1371 1371 1372 1373 1375 1376 1376 1379 1380 1380 1381 1383
1392 1391 1388 1388 1390 1392 1393 1395 1396 1398 1401 1398 1397 1395 1392 1391 1391 1390 1390 1390 1389 1390 1389 1387 1389 1382 1377 1365 1366 1366 1367 1367 1367 1368 1369 1372 1374 1376 1377 1379 1384 1384 1385 1387
1392 1393 1391 1391 1391 1393 1394 1396 1396 1398 1398 1396 1394 1392 1392 1393 1390 1389 1390 1388 1387 1386 1386 1387 1384 1373 1364 1363 1364 1363 1364 1364 1365 1365 1370 1371 1374 1376 1378 1380 1385 1388 1388 1391
1392 1391 1392 1392 1392 1393 1393 1394 1396 1396 1396 1392 1391 1391 1390 1391 1390 1389 1390 1389 1390 1385 1386 1384 1377 1367 1360 1360 1359 1360 1362 1362 1363 1365 1366 1368 1371 1374 1378 1383 1386 1389 1392 1395
1394 1394 1394 1392 1393 1393 1394 1394 1395 1394 1391 1390 1389 1389 1389 1389 1389 1389 1390 1389 1391 1385 1390 1386 1375 1361 1360 1359 1358 1358 1359 1361 1363 1365 1366 1367 1370 1375 1378 1382 1386 1391 1395 1398
1394 1395 1394 1394 1395 1393 1388 1388 1390 1390 1390 1390 1389 1389 1389 1389 1389 1389 1390 1389 1386 1390 1386 1377 1364 1361 1360 1359 1359 1359 1360 1361 1363 1364 1365 1367 1370 1375 1379 1383 1388 1392 1397 1401
1395 1395 1395 1393 1390 1390 1390 1391 1393 1392 1390 1389 1389 1388 1388 1388 1389 1390 1389 1391 1391 1385 1384 1369 1361 1361 1360 1359 1359 1360 1361 1362 1363 1364 1365 1367 1370 1374 1380 1385 1389 1393 1398 1403
1395 1395 1393 1392 1393 1392 1392 1392 1392 1391 1390 1389 1389 1389 1389 1388 1389 1391 1391 1389 1384 1382 1370 1363 1363 1361 1360 1359 1359 1360 1361 1362 1363 1365 1366 1369 1372 1376 1380 1386 1391 1396 1400 1404
1394 1393 1393 1392 1392 1391 1391 1391 1391 1390 1389 1388 1389 1388 1388 1385 1386 1388 1384 1387 1379 1365 1367 1364 1362 1361 1360 1360 1360 1360 1361 1362 1364 1366 1368 1371 1374 1377 1381 1387 1393 1398 1404 1408
1392 1391 1391 1391 1392 1391 1391 1390 1390 1389 1389 1388 1387 1386 1380 1388 1385 1383 1381 1375 1367 1366 1365 1363 1362 1361 1360 1360 1361 1361 1362 1363 1365 1367 1370 1373 1376 1381 1385 1389 1395 1401 1406 1410